Regional Weather Roundup
Issued by NWS Sterling, VA

Home | Current Version | Previous Version | Text Only | Print | Product List | Glossary Off
Versions: 1 2 3 4 5 6 7 8 9 10 11 12 13 14 15 16 17 18 19 20 21 22 23 24 25 26 27 28 29 30 31 32 33 34 35 36 37 38 39 40 41 42 43 44 45 46 47 48 49 50

062
ASUS41 KLWX 302010
RWRLWX

REGIONAL WEATHER ROUNDUP
NATIONAL WEATHER SERVICE BALTIMORE MD/WASHINGTON DC
400 PM EDT SAT JUL 30 2016

Note: "FAIR" indicates few or no clouds below 12,000 feet
with no significant weather and/or obstructions to visibility.
 TC=TEMPERATURE CELSIUS

 * =Non NWS site. Station does not report precipitation (e.g. rain,
    snow, etc.), thunder, or fog.

DCZ001-MDZ009-015-VAZ040>042-051-053>054-302100-
WASHINGTON METRO

CITY           SKY/WX    TMP DP  RH WIND       PRES   REMARKS
WASHINGTON NAT PTSUNNY   87  73  62 S16       29.92F HX  94
DULLES         PTSUNNY   86  72  62 SE14G21   29.91F HX  92
ANDREWS AFB    MOSUNNY   84  74  71 S12G21    29.92F HX  91
FT BELVOIR     FAIR      85  72  64 S8        29.91F HX  90
LEESBURG*      PTSUNNY   88  75  66 S10G22    29.91F HX  97
MANASSAS*      SUNNY     84  75  74 S14       29.91F HX  92
GAITHERSBURG*  CLOUDY    86  72  62 S12G20    29.96S HX  92

$$

MDZ006>007-011-014-302100-
BALTIMORE METRO

CITY           SKY/WX    TMP DP  RH WIND       PRES   REMARKS
BWI AIRPORT    LGT RAIN  78  74  87 SE8       29.93S
MD SCIENCE CTR   N/A     84  70  62 MISG      29.96R
MARTIN STATE   PTSUNNY   86  79  79 SE14G20   29.94F HX  99
ANNAPOLIS      CLOUDY     0   0 100 CALM      29.93F
FORT MEADE*    CLOUDY    81  72  74 SE10G17   29.95S

$$

MDZ012-015-019>023-302100-
MARYLAND EASTERN SHORE

CITY           SKY/WX    TMP DP  RH WIND       PRES   REMARKS
OCEAN CITY     MOSUNNY   81  72  74 VRB5      29.98F
SALISBURY      SUNNY     81  70  69 SE6       29.98S
BAY BRIDGE AP* CLOUDY    86  72  62 S13G22    29.94S HX  92
CAMBRIDGE*     CLOUDY    82  70  65 SE9       29.96F
EASTON*        PTSUNNY   88  72  58 S16G23    29.99S HX  94

$$

MDZ017>025-302100-
SOUTHERN MARYLAND

CITY           SKY/WX    TMP DP  RH WIND       PRES   REMARKS
PATUXENT RIVER PTSUNNY   84  70  62 S10       29.95F
ST INIGOES     CLOUDY    84  72  67 SE6       29.95F
LEONARDTOWN*   CLOUDY    82  70  65 SE10      29.97F

$$

MDZ003>005-302100-
NORTH CENTRAL MARYLAND

CITY           SKY/WX    TMP DP  RH WIND       PRES   REMARKS
FREDERICK*     NOT AVBL
HAGERSTOWN APT CLOUDY    76  72  87 SE8       29.93R THUNDER

$$

MDZ501>502-302100-
WESTERN MARYLAND

CITY           SKY/WX    TMP DP  RH WIND       PRES   REMARKS
OAKLAND*       CLOUDY    66  64  94 NW5       30.06S FOG
CUMBERLAND*    PTSUNNY   82  70  65 N17G23    29.97R

$$

VAZ025>031-302100-
SHENANDOAH VALLEY

CITY           SKY/WX    TMP DP  RH WIND       PRES   REMARKS
WINCHESTER*    FAIR      79  73  83 CALM      29.92F
FRONT ROYAL*   CLOUDY    73  72  94 E3        29.91S
LURAY*         NOT AVBL
NEW MARKET*    CLOUDY    86  70  57 CALM      29.89S HX  91
STAUNTON*      FAIR      88  69  53 SW10      29.94F HX  92
WAYNESBORO*    FAIR      87  67  51 SW10      29.95F HX  90

$$

WVZ021-048>050-054>055-302100-
EASTERN WEST VIRGINIA PANHANDLE

CITY           SKY/WX    TMP DP  RH WIND       PRES   REMARKS
MARTINSBURG    LGT RAIN  76  71  85 SE13      29.91F
PETERSBURG*    FAIR      89  69  50 W14       29.91F HX  93

$$

VAZ036>039-050-302100-
CENTRAL FOOTHILLS

CITY           SKY/WX    TMP DP  RH WIND       PRES   REMARKS
CHARLOTTESVILL TSTM      78  73  84 S8        29.92F
CULPEPER*      FAIR      86  76  72 S8        29.91F HX  97
ORANGE*          N/A     84  72  65 CALM      29.95S
GORDONSVILLE*  MOCLDY    84  76  77 S3        29.91F HX  92
WARRENTON*     FAIR      85  71  61 SE6       29.90F HX  90

$$

VAZ055>057-302100-
NORTH AND CENTRAL PIEDMONT

CITY           SKY/WX    TMP DP  RH WIND       PRES   REMARKS
FREDERICKSBRG*   N/A     87  76  71 SE9       29.91F HX  97
STAFFORD*      FAIR      87  73  62 SE9       29.95F HX  94

$$

NCZ024-NYZ072-PAZ021-071-VAZ022-071-302100-
OTHER REGIONAL OBSERVATIONS

CITY           SKY/WX    TMP DP  RH WIND       PRES   REMARKS
NEW YORK CITY  LGT RAIN  75  72  90 MISG      30.02R FOG
PHILADELPHIA   PTSUNNY   86  69  56 S10       29.95F HX  90
PITTSBURGH     PTSUNNY   77  67  71 SE5       29.95F
ROANOKE        PTSUNNY   86  69  56 SW6       29.97F HX  90
RICHMOND       PTSUNNY   78  73  84 E12       29.94F
RALEIGH        PTSUNNY   95  74  50 W9        29.92F HX 105

$$

ANZ530>537-302100-
MARINE OBSERVATIONS

STATION/POSITION TIME  TEMP    WIND        PRES
                       AIR SEA DIR/SP/G
                 (UTC) (F)     (DEG/KT/KT) (MB)
THOMAS PT LIGHT  2000   84 84  170/ 20/ 22 1014.7F
BALT KEY BRIDGE  1930   82     150/ 18/ 21 1012.9F
COVE POINT       1930   83     180/ 17/ 21 1014.9F
LEWISETTA        1930   81 86  170/  7/  8 1014.2F
SOLOMONS ISLAND  1930   83 85  160/ 13/ 18   N/A
PINEY POINT      1930          180/ 14/ 15   N/A

$$





USA.gov is the U.S. government's official web portal to all federal, state and local government web resources and services.